Temp
16 14 13 13 13 13 13 14 15 15 16 16 16 16 17 17 16 17 16 17 17 17 17 17 17 17 16 16 16 16 15 15 16 16 16 17 18 18 18 18 18 19 18
15 15 14 13 12 12 14 14 14 15 16 16 16 17 17 17 17 17 16 16 16 16 16 16 16 17 16 16 16 16 16 15 15 15 17 17 18 18 18 18 17 18 19
15 15 14 13 13 13 13 13 14 15 16 15 15 15 15 15 15 15 15 16 16 15 15 16 16 16 16 15 15 16 15 15 15 15 16 16 17 19 19 18 18 18 18
13 13 13 13 13 13 13 12 14 14 15 15 15 15 16 16 16 16 16 16 16 16 16 15 15 15 16 16 15 15 15 15 15 14 14 15 16 16 18 16 16 17 18
10 9 9 9 8 8 9 11 13 14 14 14 14 15 15 15 15 15 14 15 15 15 15 15 15 15 15 15 15 15 15 15 15 14 14 14 14 15 15 17 17 14 15
8 8 7 7 7 7 6 8 10 12 13 13 14 15 15 15 14 14 14 14 14 14 14 14 14 14 14 14 14 14 15 14 15 15 15 15 15 15 15 15 17 17 16
6 6 6 5 6 6 4 6 9 11 12 13 14 14 14 14 14 14 14 14 14 13 13 14 14 15 14 14 14 14 14 14 14 14 14 14 15 15 16 16 16 16 15
6 5 5 4 4 4 3 4 6 7 9 11 12 13 13 13 13 13 13 12 12 12 12 13 13 14 15 14 14 14 13 13 13 13 13 13 13 14 14 14 14 14 14
8 6 6 4 4 4 3 3 4 5 5 6 8 10 10 11 10 10 11 11 10 11 12 12 13 13 13 13 13 14 14 13 13 14 14 14 14 14 14 13 13 14 14
8 7 7 6 5 4 3 3 3 3 4 4 5 5 6 7 6 6 7 8 9 10 10 10 11 11 12 12 13 13 13 13 13 13 13 13 12 13 13 13 13 13 14
8 7 6 6 6 4 3 3 3 3 3 3 4 4 3 5 5 6 7 6 7 9 8 8 9 10 10 10 11 11 12 12 13 13 13 13 13 13 13 13 13 13 13
9 8 7 6 5 5 4 6 5 5 5 4 3 3 4 4 5 6 5 5 6 6 6 6 7 7 8 8 8 9 9 9 10 10 10 11 12 13 13 13 13 13 13
9 9 8 7 6 6 5 5 5 5 4 4 5 5 5 5 5 4 5 4 4 4 5 5 5 5 5 6 7 6 6 6 7 7 7 8 9 9 10 10 12 13 13
8 7 7 6 6 5 5 5 4 4 4 4 4 4 3 4 4 4 4 3 3 4 3 3 4 4 4 5 4 4 5 6 6 6 6 7 7 8 8 9 10 10 11
10 9 8 7 5 5 4 3 3 3 3 3 3 3 3 3 3 3 3 2 2 2 3 3 3 3 3 4 2 3 4 4 5 5 6 6 6 6 6 6 7 8 9
11 9 8 7 7 6 5 4 3 3 3 3 2 2 2 2 2 2 2 2 2 2 2 2 2 2 3 2 1 1 2 3 4 4 5 5 5 5 5 5 6 7 8
11 10 9 7 6 5 4 4 3 3 3 2 2 2 1 1 1 1 1 1 1 1 1 2 1 2 2 1 1 1 2 2 3 3 3 3 3 3 4 4 5 6 7
11 10 8 7 5 4 4 3 2 2 2 2 1 1 1 1 1 1 1 1 1 1 1 1 1 1 1 0 0 0 1 2 2 2 3 3 3 4 3 4 4 4 6
12 10 8 7 5 5 3 3 2 2 2 2 1 1 1 1 1 1 0 0 0 1 1 1 1 1 1 1 0 0 1 1 2 2 2 2 3 3 3 3 3 4 5
9 8 6 5 5 5 3 2 3 2 2 1 1 0 -0 0 1 0 0 -0 0 0 1 1 1 1 1 1 0 0 0 1 1 1 1 1 1 2 2 2 3 4 4
7 6 5 6 6 4 2 2 2 2 1 0 -0 -0 -0 -0 -0 -0 -0 -0 0 0 1 1 1 1 1 1 -0 -0 -0 0 0 1 1 1 1 1 1 2 2 3 4
6 5 6 5 4 3 2 2 2 1 0 -0 -0 -1 -0 -0 -0 -0 -0 -0 0 0 0 0 0 -0 -0 -0 -0 -0 0 0 0 1 1 1 1 1 1 1 2 2 4
6 5 5 4 3 2 1 2 2 0 -0 -0 -0 -0 -0 0 -0 -1 -1 -0 -0 -1 -1 -1 -1 -1 -1 -1 -1 -0 -0 -0 0 0 0 1 1 1 1 1 2 2 4
6 5 4 4 3 2 1 1 0 -1 -1 -0 -0 -0 -0 -1 -1 -1 -1 -1 -1 -1 -1 -2 -2 -2 -2 -1 -1 -1 -1 -1 -0 -0 0 0 1 1 1 1 2 3 4
5 4 4 4 3 2 1 0 -0 -1 -1 -0 -0 -1 -1 -1 -1 -1 -1 -1 -2 -2 -2 -2 -3 -3 -2 -2 -2 -1 -1 -1 -1 0 1 1 1 1 1 1 2 2 3
5 4 3 3 3 1 0 -0 -1 -1 -1 -0 -0 -1 -1 -1 -1 -1 -1 -2 -2 -3 -3 -3 -3 -3 -3 -2 -2 -2 -2 -1 -1 -0 0 1 1 0 1 1 2 2 2
Height
769 770 767 764 765 766 766 767 769 770 771 773 774 775 775 778 779 781 781 782 783 784 785 785 785 785 785 785 786 787 788 789 792 797 796 797 797 799 800 800 801 801 802
764 762 760 759 759 760 761 761 763 764 766 767 768 770 771 773 775 776 776 778 779 779 781 780 779 780 780 781 781 781 782 783 786 790 791 791 791 790 790 794 795 795 797
761 756 754 753 753 754 755 757 757 759 761 762 764 766 768 769 771 772 773 774 774 774 774 774 774 774 774 772 773 776 777 777 777 781 787 788 785 784 782 787 786 788 791
761 757 754 752 751 750 752 751 753 754 756 758 760 762 763 765 767 769 770 770 770 769 768 766 766 765 765 764 765 767 769 772 770 775 777 780 782 780 781 780 778 782 784
771 764 760 759 755 752 751 748 748 750 752 754 756 759 760 762 763 765 765 764 762 760 758 757 756 755 756 756 757 758 759 759 761 765 769 775 776 777 780 776 776 777 779
779 771 766 763 759 755 751 749 746 747 749 750 752 755 757 759 760 762 762 759 756 752 750 749 747 746 747 746 747 749 747 748 753 757 760 762 765 768 773 774 774 774 775
782 776 771 768 763 759 755 750 745 744 746 748 750 751 753 754 757 759 758 756 753 750 747 741 740 739 739 738 738 741 743 749 747 751 756 759 761 763 765 767 770 770 772
786 782 778 772 765 760 757 753 746 743 742 743 745 748 751 753 755 754 755 754 751 749 746 740 737 734 735 736 737 740 741 743 746 749 751 754 757 759 759 762 768 766 766
786 784 780 774 773 766 761 755 751 748 746 746 746 747 749 749 750 753 752 750 749 747 745 741 739 738 736 735 736 736 739 740 742 744 745 747 747 749 753 755 757 756 755
787 785 781 778 774 771 766 760 757 751 751 750 749 749 751 750 753 752 750 751 750 748 744 743 741 738 737 737 736 736 736 740 739 739 740 741 743 744 745 744 746 748 747
788 787 784 782 777 774 771 768 764 759 756 755 755 755 757 754 755 752 751 752 750 747 744 743 741 739 739 738 738 738 737 736 736 736 736 736 736 735 737 738 738 738 740
788 788 786 783 781 776 773 773 770 766 764 762 763 765 757 757 754 753 755 755 752 749 746 744 743 740 738 738 736 736 735 734 733 732 731 730 730 727 727 726 725 724 725
790 786 786 785 782 780 777 774 773 771 769 768 768 766 762 759 759 758 757 755 753 750 748 746 744 742 740 739 737 735 734 732 733 730 729 727 726 724 722 720 715 711 708
788 789 786 784 785 784 781 779 776 773 772 771 768 766 763 762 761 759 756 754 752 750 748 747 744 741 739 739 737 735 734 732 730 727 727 726 724 722 719 716 711 707 704
782 784 785 785 784 783 781 780 777 776 774 771 769 767 765 763 761 758 757 756 753 751 749 746 743 741 739 737 735 732 731 730 726 725 724 722 720 718 716 713 707 706 700
777 781 783 784 783 783 781 779 778 776 774 772 770 768 766 764 762 761 758 755 753 751 749 746 743 741 739 737 735 733 730 727 724 720 717 716 714 711 709 707 704 701 697
773 777 779 780 780 780 780 779 778 777 774 772 770 769 767 765 763 760 758 756 753 750 748 745 743 740 737 734 732 730 728 724 720 717 714 710 707 705 702 698 695 692 689
768 772 775 777 778 779 779 778 777 775 774 772 771 770 767 764 762 759 756 754 752 749 747 744 741 738 735 733 730 727 723 719 716 713 710 706 702 700 697 692 688 684 680
765 769 772 775 776 777 778 778 777 776 775 773 772 770 767 764 761 757 754 752 750 746 743 741 738 736 732 730 726 723 720 716 713 710 706 703 698 694 692 687 682 675 668
765 768 771 773 775 776 777 778 777 777 775 773 771 768 766 763 760 757 754 752 749 745 740 739 739 736 732 728 725 722 718 713 707 704 699 696 692 687 684 682 677 668 662
762 764 766 768 770 772 774 776 776 775 774 772 769 766 764 761 759 756 753 750 748 745 742 738 735 732 730 725 721 717 714 708 701 695 691 688 683 680 676 674 670 663 657
760 762 764 766 768 770 772 772 771 771 770 768 766 764 762 760 757 754 752 751 747 743 740 737 732 728 725 723 718 713 709 703 697 688 683 678 674 670 668 665 659 654 649
757 760 762 765 767 768 769 768 767 766 765 764 762 761 759 757 755 753 750 747 744 742 740 736 731 723 720 717 714 708 703 697 690 682 676 670 667 663 659 655 652 646 641
751 754 758 760 762 764 764 764 765 765 764 762 760 758 757 755 753 750 746 743 741 739 737 735 732 728 723 717 712 705 697 690 682 674 667 660 657 654 650 646 643 639 633
746 749 752 754 756 758 760 762 762 761 761 759 758 755 752 750 747 745 743 741 740 739 737 734 731 726 719 714 709 702 693 684 676 666 658 651 648 645 642 640 637 632 628
740 744 748 751 754 756 757 757 758 759 758 756 753 751 749 746 743 741 738 738 736 735 734 731 728 722 716 710 704 695 686 678 668 660 652 645 643 640 637 635 630 625 623
Wind_Speed
18 19 18 18 22 23 22 22 22 23 19 16 17 15 17 15 15 15 16 17 19 20 19 21 22 24 26 28 28 27 29 30 28 21 19 23 23 24 23 22 23 24 22
18 18 16 15 18 20 21 21 20 22 21 19 18 15 13 12 13 12 14 16 18 20 22 23 25 25 26 29 29 29 26 26 31 20 16 6 17 22 23 25 24 24 24
18 15 14 14 13 17 18 20 21 20 22 20 17 13 11 10 11 13 14 16 18 21 23 25 27 28 29 29 31 33 31 24 23 34 13 4 7 6 10 24 26 23 25
11 9 10 8 8 10 14 14 17 18 20 19 17 15 13 13 13 14 16 20 23 25 28 30 31 33 33 33 32 34 35 33 22 22 30 32 6 3 4 8 13 21 25
14 14 15 16 14 13 10 3 9 14 16 16 16 13 13 13 13 14 19 24 28 29 32 33 35 35 35 35 35 35 36 35 31 27 20 26 25 19 7 5 5 6 20
15 15 20 18 18 19 18 11 5 11 13 14 14 13 13 13 11 13 17 22 24 24 25 28 32 36 35 35 36 36 34 33 31 28 26 23 12 15 12 7 14 16 16
13 15 16 19 18 19 21 16 11 8 11 11 13 14 12 10 12 11 8 5 3 6 8 12 25 26 29 33 30 30 30 24 23 23 21 20 21 20 18 15 16 11 18
9 11 14 18 22 25 24 20 16 13 11 7 7 7 9 12 5 2 1 4 5 7 12 13 12 8 21 28 28 23 21 22 20 20 20 21 24 22 21 22 21 10 8
11 11 13 16 16 22 22 23 20 18 18 14 13 12 11 12 12 9 8 8 9 10 10 9 9 10 4 10 11 14 18 20 23 27 28 26 25 25 29 27 26 17 10
11 12 13 16 15 15 19 25 21 24 23 23 21 18 17 17 14 13 14 11 10 9 10 11 11 11 4 6 7 12 15 19 24 24 22 21 23 24 27 27 26 24 23
8 8 10 13 14 13 14 15 16 17 22 22 22 20 15 16 13 15 15 13 11 12 12 12 12 12 10 8 6 6 8 13 21 25 26 27 29 28 29 29 30 32 30
7 6 8 8 11 14 14 13 14 17 14 14 14 7 14 13 15 15 11 10 10 12 12 11 11 11 11 11 10 11 14 15 16 16 17 18 23 31 34 34 35 36 35
2 6 5 5 8 8 10 12 12 12 12 11 10 11 13 13 12 10 10 10 10 10 10 10 10 11 11 12 11 11 13 14 16 18 20 22 22 24 25 26 28 37 40
3 2 4 6 6 6 7 8 10 11 10 9 10 12 12 11 10 10 11 12 13 13 13 12 12 12 12 10 12 13 14 15 16 17 19 21 21 23 24 26 26 27 28
5 3 3 2 3 4 4 5 7 8 9 10 11 12 11 11 11 12 12 11 12 12 12 13 12 12 11 10 16 16 17 18 19 19 20 20 21 26 30 31 30 30 28
6 5 4 3 2 2 4 5 6 7 8 9 10 10 11 11 11 10 11 13 12 12 13 13 14 14 12 15 16 16 17 18 19 21 22 22 23 23 25 28 32 36 33
7 6 4 3 1 3 3 3 4 5 6 8 9 10 10 9 9 9 10 10 11 12 12 12 13 14 15 15 17 19 19 20 21 21 22 24 23 25 25 28 31 33 35
9 8 8 6 4 2 1 2 2 3 5 6 6 7 8 7 7 8 8 10 10 11 10 11 12 14 14 15 17 19 19 20 21 22 24 25 27 27 27 30 31 33 34
8 8 7 6 5 4 2 2 3 4 4 5 6 7 7 7 7 9 10 10 11 13 15 16 18 19 19 18 19 22 23 24 23 24 23 25 27 26 27 31 32 33 34
10 9 9 7 6 3 2 4 5 5 5 6 7 7 8 8 8 9 9 12 13 13 16 17 16 17 20 18 21 22 21 23 22 23 24 24 26 28 28 32 33 32 32
13 12 13 11 9 6 5 6 6 6 6 6 7 8 8 8 8 9 10 12 13 13 14 17 18 19 21 23 25 25 25 24 26 25 26 26 27 29 31 31 33 35 36
13 13 12 10 8 7 7 8 8 6 5 5 6 7 8 7 8 9 9 10 12 14 16 20 22 19 23 25 28 27 27 28 29 29 29 29 29 31 33 34 33 37 36
13 12 12 9 8 9 9 9 7 5 4 5 6 6 6 6 7 9 10 11 12 14 16 19 23 28 30 32 30 30 31 32 34 32 33 35 36 34 32 28 30 33 30
15 14 12 11 11 11 10 9 6 5 5 5 6 5 6 8 8 9 10 12 14 16 18 19 20 23 26 26 28 31 33 34 32 32 31 30 31 31 31 28 27 27 24
15 15 15 14 13 12 10 9 8 8 7 5 4 4 5 6 8 9 11 13 13 14 19 19 20 21 23 27 32 35 37 35 34 37 31 26 21 21 19 22 22 24 24
16 16 15 13 11 10 10 9 9 9 7 6 4 4 6 8 9 13 15 12 15 18 19 20 20 23 25 28 32 36 35 35 31 28 24 16 17 17 18 20 21 23 20
Wind_Direction
301 291 276 265 257 255 242 243 243 235 229 225 223 227 231 233 236 242 245 245 246 249 248 249 249 243 239 236 236 233 229 219 225 227 231 236 245 250 249 248 246 242 240
303 297 281 270 256 254 250 238 238 236 230 222 219 221 223 233 244 250 252 250 249 248 249 250 250 248 243 243 241 231 228 229 215 219 238 240 240 238 243 243 240 243 242
311 308 305 280 264 256 250 244 235 237 231 224 219 219 227 243 255 259 262 260 260 260 255 255 251 249 245 238 237 237 229 226 209 210 211 214 243 250 222 234 231 234 238
344 3 345 313 290 281 261 240 239 237 233 223 219 218 221 234 247 258 263 270 270 265 262 257 255 250 246 243 239 234 231 224 214 208 221 233 245 205 220 221 232 231 243
3 31 24 17 19 17 358 325 226 226 222 216 215 220 229 241 256 262 274 274 274 269 265 260 254 249 249 247 241 232 229 222 209 204 202 223 232 245 252 263 225 250 246
6 19 27 17 18 15 3 338 285 217 218 212 211 222 227 229 245 264 266 275 279 273 265 264 256 253 249 245 235 233 222 211 216 213 216 209 208 220 221 236 263 260 264
15 10 21 4 14 21 11 2 337 231 216 212 209 215 217 222 237 247 257 270 333 12 3 295 265 249 259 239 223 222 226 224 212 217 227 233 236 238 245 252 259 267 258
26 23 17 0 16 11 8 11 25 47 77 137 187 210 219 221 200 146 100 26 21 3 350 18 14 270 247 258 239 225 207 202 216 228 240 249 250 252 257 248 252 254 243
18 14 12 10 8 16 4 12 28 51 60 73 101 110 102 121 103 108 97 74 47 40 38 30 6 360 287 225 223 229 239 246 241 240 239 241 249 253 245 242 239 236 248
5 13 9 10 15 21 14 22 26 48 54 59 73 78 87 89 86 80 72 55 43 38 37 31 32 40 0 320 257 235 234 244 239 233 241 246 247 248 246 239 239 239 242
4 8 1 5 9 25 20 27 29 47 55 55 63 64 69 73 72 62 55 35 28 31 23 16 15 16 17 10 9 339 298 267 253 250 253 252 250 246 247 249 246 245 242
338 357 354 14 20 360 7 35 41 50 51 53 66 63 61 63 59 53 42 29 26 22 17 15 10 9 2 355 346 331 324 310 298 297 303 290 272 257 249 245 242 243 242
307 327 356 19 13 8 16 22 37 40 47 55 57 54 52 48 48 44 38 26 21 20 18 13 10 4 1 352 350 340 328 319 309 307 305 302 303 296 291 289 279 252 244
222 209 300 335 1 7 25 31 28 31 36 46 49 46 42 38 32 29 27 20 17 13 6 1 359 354 352 348 343 335 325 318 311 309 304 300 299 298 300 299 292 288 288
220 221 214 246 304 345 16 23 27 26 28 34 35 30 26 24 23 22 18 11 14 7 360 356 354 349 344 341 339 336 326 315 312 303 296 293 291 290 291 291 293 288 291
214 209 203 208 190 32 16 19 19 18 21 28 26 16 13 13 12 6 5 5 360 353 350 349 344 337 334 329 334 331 321 311 303 300 300 298 300 300 301 295 289 281 282
218 205 202 211 351 13 6 8 4 7 14 15 9 2 357 357 355 355 354 350 348 343 339 336 331 323 324 324 324 326 319 311 302 302 301 299 297 297 299 299 297 289 277
208 198 195 187 183 190 265 319 332 350 351 347 332 330 334 336 341 346 350 347 339 334 332 331 331 327 328 328 326 326 322 313 308 305 299 296 295 292 292 296 294 291 286
208 202 192 188 191 201 227 283 293 298 308 320 317 317 327 333 344 351 351 346 341 343 345 341 337 333 330 331 334 332 321 310 303 299 298 295 295 300 298 293 290 289 288
181 179 185 195 208 210 242 268 275 286 298 317 319 322 332 336 341 346 349 345 343 342 341 335 332 327 320 325 327 326 317 306 303 299 297 292 294 299 297 294 297 288 289
179 182 187 197 201 193 215 249 266 278 295 307 317 323 325 325 331 338 345 346 342 337 336 327 330 329 329 325 328 326 320 311 306 305 303 299 300 296 296 293 289 294 288
185 191 195 202 202 210 222 238 243 253 275 299 312 318 322 329 332 338 341 336 341 344 339 331 326 329 329 326 324 323 319 315 307 301 297 297 297 296 293 290 287 296 288
192 195 203 203 209 215 223 237 241 245 275 297 306 311 320 324 329 332 337 345 349 343 336 334 331 327 326 321 321 322 318 315 309 304 299 296 294 290 289 286 289 295 288
198 196 199 207 217 216 219 231 242 251 270 289 309 318 324 332 329 335 343 345 344 336 331 326 318 313 310 313 318 319 318 314 310 303 296 290 286 286 282 287 288 289 276
197 195 201 209 214 209 218 228 230 223 234 255 289 316 320 330 335 339 339 335 328 322 313 310 308 308 307 311 316 320 318 318 314 311 303 294 282 281 281 278 279 286 281
192 195 204 209 210 211 221 221 223 222 240 260 288 315 327 336 341 338 332 330 322 318 314 310 310 312 310 312 317 322 323 323 323 323 315 294 279 267 273 273 284 288 281